Regional Weather Roundup
Issued by NWS

Home | Current Version | Previous Version | Graphics & Text | Print | Product List | Glossary On
Versions: 1 2 3 4 5 6 7 8 9 10 11 12 13 14 15 16 17 18 19 20 21 22 23 24 25 26 27 28 29 30 31 32 33 34 35 36 37 38 39 40 41 42 43 44 45 46 47 48 49 50
576
ASUS43 KMPX 201201
RWRMN
WEATHER ROUNDUP FOR MINNESOTA
NATIONAL WEATHER SERVICE TWIN CITIES/CHANHASSEN MN
700 AM CDT SUN MAY 20 2018


NOTE: "FAIR" INDICATES FEW OR NO CLOUDS BELOW 12,000 FEET WITH NO
SIGNIFICANT WEATHER AND/OR OBSTRUCTIONS TO VISIBILITY. N/A MEANS
CURRENT SKY AND/OR WEATHER CONDITIONS ARE NOT AVAILABLE.

MNZ060>063-068>070-201300-
   Twin Cities Metro

CITY           SKY/WX    TMP DP  RH WIND       PRES   REMARKS
TWIN CITIES    PTSUNNY   47  37  68 NE12      30.22R
6HR MIN TEMP:  46; 6HR MAX TEMP:  51;

ST PAUL        FAIR      45  36  70 NE9       30.23R
CRYSTAL        FAIR      43  37  79 NE7       30.22R
BLAINE         PTSUNNY   43  39  87 N7        30.23R
LAKEVILLE      FAIR      43  36  75 NE10      30.20R
EDEN PRAIRIE   FAIR      47  36  65 NE9G20    30.20R
6HR MIN TEMP:  46; 6HR MAX TEMP:  51;

SOUTH ST PAUL  FAIR      46  35  66 NE6       30.21R
LAKE ELMO      FAIR      43  36  75 NE9G17    30.23R
$$
MNZ001>005-007-008-013>017-022>024-027-028-201300-
   Northwest Minnesota

CITY           SKY/WX    TMP DP  RH WIND       PRES   REMARKS
BEMIDJI        FAIR      34  33  95 CALM      30.27R
HALLOCK        FAIR      39  37  93 SE7       30.23R
ROSEAU         FAIR      43  37  81 S6        30.24R
WARROAD        FAIR      45  37  76 SW3       30.24R
THIEF RVR FALL FAIR      42  35  76 S5        30.27R
CROOKSTON      FAIR      43  37  81 S5        30.27R
FOSSTON        FAIR      39  34  81 CALM      30.27R
DETROIT LAKES  FAIR      43  36  75 CALM      30.27R
MOORHEAD       FAIR      39  34  81 CALM      30.27R
PARK RAPIDS    FAIR      36  35  96 CALM      30.27R
MAHNOMEN       FAIR      42  34  73 CALM      30.26R
$$
MNZ006-009>011-018-025>026-201300-
   North Central Minnesota

CITY           SKY/WX    TMP DP  RH WIND       PRES   REMARKS
BAUDETTE       FAIR      43  36  76 SW5       30.23R
FLAG ISLAND    FAIR      46  36  66 SE5       30.20R
INTL FALLS     FAIR      38  37  97 CALM      30.24R
6HR MIN TEMP:  31; 6HR MAX TEMP:  38;

WASKISH        FAIR      41  36  81 CALM      30.26R
BIG FORK       FAIR      36  34  93 CALM      30.26R
LONGVILLE      FOG       34  34 100 CALM      30.27R VSB 1/2
GRAND RAPIDS   FAIR      36  35  96 N3        30.29R
CRANE LAKE     FAIR      30  30 100 CALM      30.28R
ORR            FAIR      37  34  87 CALM      30.24R FOG
COOK           FAIR      36  34  93 CALM      30.27R
WALKER         FAIR      36  34  95 CALM      30.27R
$$
MNZ012-019>021-037-201300-
   Northeast Minnesota

CITY           SKY/WX    TMP DP  RH WIND       PRES   REMARKS
DULUTH         FAIR      40  36  86 CALM      30.26R
6HR MIN TEMP:  31; 6HR MAX TEMP:  40;

ELY            FAIR      36  36 100 CALM      30.26R
HIBBING        FAIR      32  30  92 NW3       30.27R
EVELETH        FAIR      32  32 100 CALM      30.27S
DULUTH HARBOR  FAIR      39  37  93 S3        30.29R
TWO HARBORS    FAIR      41  36  81 CALM      30.26R
SILVER BAY     FAIR      34  34 100 CALM      30.26R
GRAND MARAIS     N/A     37  33  85 SW3       30.26R
G MARAIS ARPRT FAIR      41  32  70 SW3       30.24S
$$
MNZ029>031-032-039>041-046>048-054>057-064-201300-
   West Central Minnesota

CITY           SKY/WX    TMP DP  RH WIND       PRES   REMARKS
FERGUS FALLS   FAIR      43  37  81 E3        30.24R
WHEATON        CLOUDY    41  36  81 CALM      30.27S
MORRIS         MOSUNNY   46  39  76 E6        30.24R
ALEXANDRIA     FAIR      47  38  71 E8        30.26R
ELBOW LAKE     FAIR      47  38  73 E5        30.26S
WADENA         FAIR      37  36  93 CALM      30.27R
GLENWOOD       FAIR      43  39  87 NE8       30.25R
APPLETON       CLOUDY    43  37  81 NE3       30.24R
BENSON         CLOUDY    43  37  81 CALM      30.26R
ORTONVILLE     CLOUDY    45  39  81 NE6       30.24S
MADISON        CLOUDY    45  41  87 NE5       30.24R
WILLMAR        FAIR      46  37  71 E13       30.26R
$$
MNZ033>034-036-042>043-049>051-058-059-201300-
   Central Minnesota

CITY           SKY/WX    TMP DP  RH WIND       PRES   REMARKS
ST CLOUD       FAIR      42  37  82 N5        30.25R
6HR MIN TEMP:  37; 6HR MAX TEMP:  48;

SAUK CENTRE    FAIR      43  38  82 E7        30.25S
PAYNESVILLE    FAIR      43  39  88 NE6       30.25R
AITKIN         FAIR      34  32  93 CALM      30.26R
PINE RIVER     FAIR      34  30  86 CALM      30.30R
BRAINERD       FAIR      40  38  93 CALM      30.28R FOG
STAPLES        FAIR      37  36  93 CALM      30.27R
LONG PRAIRIE   FAIR      41  37  87 N3        30.27R
LITTLE FALLS   FAIR      41  37  87 CALM      30.26S
LITCHFIELD     FAIR      46  41  81 E8        30.24R
BUFFALO        FAIR      44  36  74 NE12      30.24R
MAPLE LAKE     FAIR      44  39  84 NE10      30.25R
HUTCHINSON     FAIR      46  38  75 NE13G18   30.23R
$$
MNZ037-044-045-052-053-201300-
   East Central Minnesota

CITY           SKY/WX    TMP DP  RH WIND       PRES   REMARKS
PRINCETON      FAIR      43  37  81 NE8       30.25S
MORA           FAIR      36  34  93 CALM      30.28R
CAMBRIDGE      FAIR      45  34  65 NE5       30.25S
RUSH CITY      FAIR      39  36  88 NE3       30.26R
MOOSE LAKE     FAIR      36  34  93 CALM      30.26R
HINCKLEY       FAIR      36  36 100 N3        30.27R
CLOQUET        FAIR      36  34  93 NW3       30.27R
MCGREGOR       FAIR      34  32  93 CALM      30.28R
$$
MNZ071>073-080-081-089-090-097-098-201300-
   Southwest Minnesota

CITY           SKY/WX    TMP DP  RH WIND       PRES   REMARKS
MONTEVIDEO     PTSUNNY   46  41  81 CALM      30.25R
GRANITE FALLS  CLOUDY    48  40  74 N9        30.25R
CANBY          SUNNY     45  40  82 E3        30.25R
MARSHALL       CLOUDY    46  39  76 NE8       30.23
REDWOOD FALLS  CLOUDY    46  38  73 NE6       30.23R
OLIVIA         PTSUNNY   46  39  76 NE7       30.22R
PIPESTONE      CLOUDY    46  39  76 E12       30.19R
WINDOM         CLOUDY    48  28  46 NE13G18   30.17S
WORTHINGTON    CLOUDY    47  40  76 NE13      30.18R
JACKSON        CLOUDY    46  37  71 NE15      30.18R
TRACY          CLOUDY    49  40  72 NE15      30.21R
SLAYTON        CLOUDY    47  39  74 NE13      30.19R
$$
MNZ065>067-074>077-082>085-091>093-201300-
   South Central Minnesota

CITY           SKY/WX    TMP DP  RH WIND       PRES   REMARKS
MANKATO        CLOUDY    48  36  63 NE20      30.18R
NEW ULM        CLOUDY    46  37  71 NE10      30.20R
ST JAMES       CLOUDY    48  36  61 NE9G16    30.20R
FAIRMONT       CLOUDY    49  40  71 NE14      30.17R
GLENCOE        FAIR      46  38  74 NE7       30.21R
FARIBAULT      FAIR      46  37  71 CALM      30.19R
OWATONNA       CLOUDY    48  37  66 NE13      30.17R
WASECA         CLOUDY    46  36  66 NE14G24   30.18R
ALBERT LEA     PTSUNNY   48  36  61 NE12G20   30.14R
$$
MNZ078>079-086>088-094>096-201300-
   Southeast Minnesota

CITY           SKY/WX    TMP DP  RH WIND       PRES   REMARKS
ROCHESTER      CLOUDY    47  41  80 NE12      30.16R
6HR MIN TEMP:  46; 6HR MAX TEMP:  49; 6HR PCP: TRACE;

RED WING       CLOUDY    48  34  57 E12       30.19R
STANTON        CLOUDY    48  37  65 NE8       30.19R
DODGE CENTER   CLOUDY    46  37  71 NE14      30.16R
WINONA         CLOUDY    48  41  76 E3        30.17R
AUSTIN         CLOUDY    48  41  76 NE14      30.13R
PRESTON        CLOUDY    47  41  78 NE12      30.16R
$$
ABBREVIATIONS USED IN REMARKS
   TC - TEMPERATURES IN CELSIUS
  WCI - WIND CHILL INDEX
   HX - HEAT INDEX
  VSB - VISIBILITY
$$




USA.gov is the U.S. government's official web portal to all federal, state and local government web resources and services.